| time (UTC) | temp F | wind direction | speed MPH | gust MPH | rain 1hr in | rain 24hr in | rain mn in | humidity % | barometer mb |
| 20260507010541 | 47 | 240 | 0.0 | 10.0 | 0.00 | 0.00 | 0.00 | 77 | 996.0 |
| 20260507010044 | 48 | 183 | 1.0 | 10.0 | 0.00 | 0.00 | 0.00 | 77 | 996.0 |
| 20260507005541 | 48 | 246 | 0.0 | 10.0 | 0.00 | 0.00 | 0.00 | 77 | 996.0 |
| 20260507005041 | 48 | 234 | 0.0 | 12.0 | 0.00 | 0.00 | 0.00 | 77 | 996.0 |
| 20260507004540 | 48 | 234 | 2.0 | 12.0 | 0.00 | 0.00 | 0.00 | 77 | 995.9 |
| 20260507004041 | 48 | 237 | 1.0 | 8.0 | 0.00 | 0.00 | 0.00 | 77 | 995.9 |
| 20260507003542 | 48 | 244 | 0.0 | 9.0 | 0.00 | 0.00 | 0.00 | 76 | 995.9 |
| 20260507003040 | 48 | 225 | 0.0 | 9.0 | 0.00 | 0.00 | 0.00 | 76 | 995.8 |
| 20260507002539 | 48 | 229 | 0.0 | 14.0 | 0.00 | 0.00 | 0.00 | 76 | 995.8 |
| 20260507002042 | 48 | 236 | 2.0 | 14.0 | 0.00 | 0.00 | 0.00 | 75 | 995.8 |
| 20260507001540 | 48 | 255 | 0.0 | 11.0 | 0.00 | 0.00 | 0.00 | 75 | 995.7 |
| 20260507001040 | 48 | 244 | 1.0 | 10.0 | 0.00 | 0.00 | 0.00 | 75 | 995.6 |
| 20260507000539 | 49 | 195 | 1.0 | 14.0 | 0.00 | 0.00 | 0.00 | 74 | 995.5 |
| 20260507000039 | 49 | 221 | 2.0 | 14.0 | 0.00 | 0.00 | 0.00 | 74 | 995.5 |
| 20260506235540 | 49 | 236 | 0.0 | 12.0 | 0.00 | 0.00 | 0.00 | 74 | 995.5 |
| 20260506235038 | 49 | 258 | 3.0 | 14.0 | 0.00 | 0.00 | 0.00 | 74 | 995.4 |
| 20260506234551 | 49 | 257 | 2.0 | 15.0 | 0.00 | 0.00 | 0.00 | 73 | 995.5 |
| 20260506234038 | 49 | 235 | 4.0 | 15.0 | 0.00 | 0.00 | 0.00 | 73 | 995.4 |
| 20260506233538 | 49 | 250 | 4.0 | 14.0 | 0.00 | 0.00 | 0.00 | 73 | 995.2 |
| 20260506233047 | 49 | 238 | 1.0 | 15.0 | 0.00 | 0.00 | 0.00 | 73 | 995.2 |
| 20260506232537 | 49 | 242 | 7.0 | 15.0 | 0.00 | 0.00 | 0.00 | 73 | 995.2 |
| 20260506232037 | 49 | 240 | 0.0 | 11.0 | 0.00 | 0.00 | 0.00 | 74 | 995.2 |
| 20260506231537 | 49 | 227 | 1.0 | 11.0 | 0.00 | 0.00 | 0.00 | 73 | 995.2 |
| 20260506231037 | 49 | 235 | 0.0 | 1.0 | 0.00 | 0.00 | 0.00 | 74 | 995.1 |
| 20260506230537 | 49 | 237 | 0.0 | 7.0 | 0.00 | 0.00 | 0.00 | 73 | 995.1 |
| 20260506230037 | 49 | 171 | 0.0 | 1.0 | 0.00 | 0.00 | 0.00 | 74 | 995.1 |
| 20260506225537 | 49 | 229 | 0.0 | 1.0 | 0.00 | 0.00 | 0.00 | 73 | 995.2 |
| 20260506225038 | 49 | 245 | 0.0 | 3.0 | 0.00 | 0.00 | 0.00 | 73 | 995.3 |
| 20260506224540 | 49 | 220 | 0.0 | 2.0 | 0.00 | 0.00 | 0.00 | 73 | 995.3 |
| 20260506224036 | 49 | 248 | 0.0 | 2.0 | 0.00 | 0.00 | 0.00 | 73 | 995.3 |
| 20260506223540 | 49 | 240 | 0.0 | 3.0 | 0.00 | 0.00 | 0.00 | 72 | 995.3 |
| 20260506223036 | 50 | 233 | 0.0 | 4.0 | 0.00 | 0.00 | 0.00 | 72 | 995.3 |
| 20260506222536 | 50 | 226 | 0.0 | 8.0 | 0.00 | 0.00 | 0.00 | 73 | 995.3 |
| 20260506222039 | 50 | 242 | 0.0 | 8.0 | 0.00 | 0.00 | 0.00 | 72 | 995.4 |
| 20260506221536 | 50 | 248 | 0.0 | 4.0 | 0.00 | 0.00 | 0.00 | 72 | 995.2 |
| 20260506221035 | 50 | 231 | 0.0 | 11.0 | 0.00 | 0.00 | 0.00 | 72 | 995.2 |
| 20260506220535 | 50 | 257 | 0.0 | 5.0 | 0.00 | 0.00 | 0.00 | 73 | 995.3 |
| 20260506220036 | 50 | 194 | 0.0 | 2.0 | 0.00 | 0.00 | 0.00 | 73 | 995.3 |
| 20260506215535 | 50 | 190 | 0.0 | 3.0 | 0.00 | 0.00 | 0.00 | 73 | 995.3 |
| 20260506215038 | 50 | 231 | 0.0 | 3.0 | 0.00 | 0.00 | 0.00 | 72 | 995.3 |
| 20260506214535 | 50 | 227 | 0.0 | 1.0 | 0.00 | 0.00 | 0.00 | 73 | 995.3 |
| 20260506214038 | 50 | 208 | 0.0 | 1.0 | 0.00 | 0.00 | 0.00 | 72 | 995.3 |
| 20260506213535 | 50 | 237 | 0.0 | 1.0 | 0.00 | 0.00 | 0.00 | 72 | 995.3 |
| 20260506213038 | 50 | 203 | 0.0 | 5.0 | 0.00 | 0.00 | 0.00 | 72 | 995.2 |
| 20260506212537 | 50 | 197 | 0.0 | 5.0 | 0.00 | 0.00 | 0.00 | 71 | 995.2 |
| 20260506212034 | 51 | 212 | 0.0 | 0.0 | 0.00 | 0.00 | 0.00 | 72 | 995.3 |
| 20260506211534 | 51 | 186 | 0.0 | 5.0 | 0.00 | 0.00 | 0.00 | 72 | 995.3 |
| 20260506211034 | 51 | 217 | 0.0 | 5.0 | 0.00 | 0.00 | 0.00 | 72 | 995.4 |
| 20260506210533 | 50 | 215 | 0.0 | 3.0 | 0.00 | 0.00 | 0.00 | 71 | 995.3 |
| 20260506210036 | 50 | 189 | 0.0 | 4.0 | 0.00 | 0.00 | 0.00 | 71 | 995.3 |
| 20260506205533 | 50 | 190 | 0.0 | 12.0 | 0.00 | 0.00 | 0.00 | 72 | 995.1 |
| 20260506205033 | 50 | 360 | 0.0 | 12.0 | 0.00 | 0.00 | 0.00 | 71 | 995.2 |
| 20260506204536 | 50 | 180 | 0.0 | 8.0 | 0.00 | 0.00 | 0.00 | 70 | 995.2 |
| 20260506204033 | 51 | 143 | 0.0 | 8.0 | 0.00 | 0.00 | 0.00 | 72 | 995.1 |
| 20260506203532 | 51 | 162 | 0.0 | 1.0 | 0.00 | 0.00 | 0.00 | 72 | 995.1 |
| 20260506203038 | 51 | 232 | 0.0 | 6.0 | 0.00 | 0.00 | 0.00 | 72 | 995.2 |
| 20260506202531 | 51 | 174 | 0.0 | 6.0 | 0.00 | 0.00 | 0.00 | 71 | 995.2 |
| 20260506202030 | 50 | 195 | 0.0 | 9.0 | 0.00 | 0.00 | 0.00 | 74 | 995.3 |
| 20260506201536 | 50 | 226 | 1.0 | 9.0 | 0.00 | 0.00 | 0.00 | 73 | 995.5 |
| 20260506201028 | 50 | 192 | 0.0 | 5.0 | 0.00 | 0.00 | 0.00 | 74 | 995.6 |
| 20260506200528 | 50 | 229 | 0.0 | 9.0 | 0.00 | 0.00 | 0.00 | 73 | 995.6 |
| 20260506200030 | 51 | 234 | 0.0 | 9.0 | 0.00 | 0.00 | 0.00 | 74 | 995.6 |
| 20260506195531 | 51 | 194 | 0.0 | 7.0 | 0.00 | 0.00 | 0.00 | 74 | 995.6 |
| 20260506195027 | 50 | 211 | 0.0 | 5.0 | 0.00 | 0.00 | 0.00 | 76 | 995.7 |
| 20260506194526 | 49 | 250 | 0.0 | 7.0 | 0.00 | 0.00 | 0.00 | 76 | 995.7 |
| 20260506194025 | 49 | 214 | 0.0 | 9.0 | 0.00 | 0.00 | 0.00 | 75 | 995.8 |
| 20260506193524 | 49 | 155 | 0.0 | 9.0 | 0.00 | 0.00 | 0.00 | 77 | 995.7 |
| 20260506193024 | 49 | 156 | 0.0 | 8.0 | 0.00 | 0.00 | 0.00 | 77 | 995.8 |
| 20260506192524 | 49 | 247 | 0.0 | 5.0 | 0.00 | 0.00 | 0.00 | 77 | 995.9 |
| 20260506192026 | 49 | 216 | 0.0 | 8.0 | 0.00 | 0.00 | 0.00 | 77 | 995.8 |
| 20260506191524 | 48 | 240 | 0.0 | 8.0 | 0.00 | 0.00 | 0.00 | 77 | 995.7 |
| 20260506191024 | 48 | 209 | 0.0 | 3.0 | 0.00 | 0.00 | 0.00 | 77 | 995.9 |
| 20260506190523 | 48 | 252 | 0.0 | 3.0 | 0.00 | 0.00 | 0.00 | 78 | 995.8 |
| 20260506190024 | 48 | 184 | 0.0 | 2.0 | 0.00 | 0.00 | 0.00 | 78 | 995.7 |
| 20260506185523 | 48 | 177 | 0.0 | 7.0 | 0.00 | 0.00 | 0.00 | 77 | 995.9 |
| 20260506185023 | 48 | 152 | 0.0 | 6.0 | 0.00 | 0.00 | 0.00 | 78 | 995.9 |
| 20260506184523 | 48 | 207 | 0.0 | 6.0 | 0.00 | 0.00 | 0.00 | 79 | 995.9 |
| 20260506184025 | 48 | 228 | 0.0 | 3.0 | 0.00 | 0.00 | 0.00 | 79 | 996.0 |
| 20260506183521 | 47 | 195 | 0.0 | 3.0 | 0.00 | 0.00 | 0.00 | 78 | 996.0 |
| 20260506183021 | 47 | 140 | 0.0 | 2.0 | 0.00 | 0.00 | 0.00 | 78 | 996.0 |
| 20260506182520 | 47 | 249 | 0.0 | 4.0 | 0.00 | 0.00 | 0.00 | 78 | 996.1 |
| 20260506182020 | 47 | 223 | 0.0 | 4.0 | 0.00 | 0.00 | 0.00 | 78 | 996.0 |
| 20260506181520 | 47 | 206 | 0.0 | 5.0 | 0.00 | 0.00 | 0.00 | 78 | 996.0 |
| 20260506181020 | 47 | 229 | 0.0 | 5.0 | 0.00 | 0.00 | 0.00 | 80 | 996.1 |
| 20260506180520 | 47 | 215 | 0.0 | 7.0 | 0.00 | 0.00 | 0.00 | 78 | 996.3 |
| 20260506180026 | 46 | 264 | 0.0 | 7.0 | 0.00 | 0.00 | 0.00 | 78 | 996.2 |
| 20260506175520 | 47 | 233 | 0.0 | 7.0 | 0.00 | 0.00 | 0.00 | 79 | 996.2 |
| 20260506175021 | 46 | 196 | 0.0 | 1.0 | 0.00 | 0.00 | 0.00 | 79 | 996.2 |
| 20260506174521 | 47 | 206 | 0.0 | 1.0 | 0.00 | 0.00 | 0.00 | 80 | 996.2 |
| 20260506174019 | 47 | 205 | 0.0 | 0.0 | 0.00 | 0.00 | 0.00 | 79 | 996.1 |
| 20260506173519 | 47 | 241 | 0.0 | 0.0 | 0.00 | 0.00 | 0.00 | 79 | 996.2 |
| 20260506173021 | 47 | 188 | 0.0 | 0.0 | 0.00 | 0.00 | 0.00 | 80 | 996.2 |
| 20260506172517 | 46 | 216 | 0.0 | 0.0 | 0.00 | 0.00 | 0.00 | 80 | 996.1 |
| 20260506172017 | 46 | 126 | 0.0 | 0.0 | 0.00 | 0.00 | 0.00 | 80 | 996.3 |
| 20260506171519 | 46 | 223 | 0.0 | 0.0 | 0.00 | 0.00 | 0.00 | 81 | 996.4 |
| 20260506171018 | 45 | 184 | 0.0 | 0.0 | 0.00 | 0.00 | 0.00 | 80 | 996.0 |
| 20260506170517 | 45 | 142 | 0.0 | 0.0 | 0.00 | 0.00 | 0.00 | 80 | 996.0 |
| 20260506170017 | 45 | 236 | 0.0 | 0.0 | 0.00 | 0.00 | 0.00 | 81 | 996.2 |
| 20260506165517 | 45 | 205 | 0.0 | 0.0 | 0.00 | 0.00 | 0.00 | 82 | 996.3 |
| 20260506165017 | 45 | 209 | 0.0 | 0.0 | 0.00 | 0.00 | 0.00 | 82 | 996.3 |
| 20260506164517 | 45 | 171 | 0.0 | 1.0 | 0.00 | 0.00 | 0.00 | 82 | 996.4 |
| 20260506164018 | 45 | 207 | 0.0 | 1.0 | 0.00 | 0.00 | 0.00 | 82 | 996.4 |
| 20260506163519 | 45 | 160 | 0.0 | 5.0 | 0.00 | 0.00 | 0.00 | 83 | 996.4 |
| 20260506163023 | 45 | 212 | 0.0 | 5.0 | 0.00 | 0.00 | 0.00 | 83 | 996.4 |
| 20260506162519 | 45 | 207 | 0.0 | 6.0 | 0.00 | 0.00 | 0.00 | 84 | 996.4 |
| 20260506162018 | 45 | 228 | 0.0 | 9.0 | 0.00 | 0.00 | 0.00 | 83 | 996.5 |
| 20260506161517 | 45 | 222 | 1.0 | 9.0 | 0.00 | 0.00 | 0.00 | 83 | 996.6 |
| 20260506161015 | 45 | 186 | 0.0 | 4.0 | 0.00 | 0.00 | 0.00 | 83 | 996.6 |
| 20260506160515 | 46 | 228 | 0.0 | 6.0 | 0.00 | 0.00 | 0.00 | 82 | 996.8 |
| 20260506160017 | 46 | 199 | 0.0 | 6.0 | 0.00 | 0.00 | 0.00 | 82 | 996.5 |
| 20260506155514 | 45 | 199 | 0.0 | 2.0 | 0.00 | 0.00 | 0.00 | 82 | 996.6 |
| 20260506155015 | 46 | 159 | 0.0 | 2.0 | 0.00 | 0.00 | 0.00 | 83 | 996.6 |
| 20260506154514 | 45 | 234 | 0.0 | 3.0 | 0.00 | 0.00 | 0.00 | 82 | 996.8 |
| 20260506154018 | 45 | 188 | 0.0 | 6.0 | 0.00 | 0.00 | 0.00 | 82 | 996.7 |
| 20260506153513 | 45 | 204 | 0.0 | 2.0 | 0.00 | 0.00 | 0.00 | 82 | 996.8 |
| 20260506153013 | 45 | 202 | 0.0 | 0.0 | 0.00 | 0.00 | 0.00 | 82 | 996.6 |
| 20260506152513 | 46 | 184 | 0.0 | 0.0 | 0.00 | 0.00 | 0.00 | 82 | 996.6 |
| 20260506152013 | 46 | 214 | 0.0 | 0.0 | 0.00 | 0.00 | 0.00 | 83 | 996.6 |
| 20260506151512 | 45 | 155 | 0.0 | 0.0 | 0.00 | 0.00 | 0.00 | 82 | 996.7 |
| 20260506151013 | 45 | 221 | 0.0 | 0.0 | 0.00 | 0.00 | 0.00 | 82 | 996.9 |
| 20260506150510 | 45 | 241 | 0.0 | 0.0 | 0.00 | 0.00 | 0.00 | 83 | 996.8 |
| 20260506150010 | 45 | 191 | 0.0 | 1.0 | 0.00 | 0.00 | 0.00 | 83 | 996.9 |
| 20260506145509 | 45 | 219 | 0.0 | 1.0 | 0.00 | 0.00 | 0.00 | 84 | 997.0 |
| 20260506145008 | 45 | 224 | 0.0 | 0.0 | 0.00 | 0.00 | 0.00 | 85 | 996.9 |
| 20260506144507 | 45 | 219 | 0.0 | 0.0 | 0.00 | 0.00 | 0.00 | 87 | 996.9 |
| 20260506144007 | 44 | 189 | 0.0 | 0.0 | 0.00 | 0.00 | 0.00 | 87 | 996.8 |
| 20260506143507 | 44 | 193 | 0.0 | 0.0 | 0.00 | 0.00 | 0.00 | 87 | 996.7 |
| 20260506143006 | 44 | 200 | 0.0 | 0.0 | 0.00 | 0.00 | 0.00 | 88 | 996.7 |
| 20260506142509 | 44 | 232 | 0.0 | 0.0 | 0.00 | 0.00 | 0.00 | 88 | 996.6 |
| 20260506142007 | 44 | 250 | 0.0 | 0.0 | 0.00 | 0.00 | 0.00 | 89 | 996.7 |
| 20260506141503 | 44 | 203 | 0.0 | 0.0 | 0.00 | 0.00 | 0.00 | 89 | 996.6 |
| 20260506141004 | 44 | 207 | 0.0 | 0.0 | 0.00 | 0.00 | 0.00 | 89 | 996.6 |
| 20260506140601 | 44 | 235 | 0.0 | 0.0 | 0.00 | 0.00 | 0.00 | 89 | 996.5 |
| 20260506140100 | 44 | 201 | 0.0 | 0.0 | 0.00 | 0.00 | 0.00 | 89 | 996.7 |
| 20260506135559 | 44 | 214 | 0.0 | 0.0 | 0.00 | 0.00 | 0.00 | 89 | 996.6 |
| 20260506135058 | 44 | 210 | 0.0 | 0.0 | 0.00 | 0.00 | 0.00 | 89 | 996.7 |
| 20260506134557 | 44 | 224 | 0.0 | 0.0 | 0.00 | 0.00 | 0.00 | 88 | 996.7 |
| 20260506134057 | 44 | 197 | 0.0 | 0.0 | 0.00 | 0.00 | 0.00 | 88 | 996.8 |
| 20260506133554 | 44 | 256 | 0.0 | 0.0 | 0.00 | 0.00 | 0.00 | 87 | 996.7 |
| 20260506133054 | 44 | 247 | 0.0 | 0.0 | 0.00 | 0.00 | 0.00 | 86 | 996.8 |
| 20260506132553 | 44 | 228 | 0.0 | 0.0 | 0.00 | 0.00 | 0.00 | 86 | 996.8 |
| 20260506132052 | 44 | 294 | 0.0 | 0.0 | 0.00 | 0.00 | 0.00 | 85 | 996.7 |
| 20260506131601 | 44 | 171 | 0.0 | 0.0 | 0.00 | 0.00 | 0.00 | 85 | 996.7 |
| 20260506131052 | 44 | 196 | 0.0 | 1.0 | 0.00 | 0.00 | 0.00 | 85 | 996.7 |
| 20260506130552 | 44 | 180 | 0.0 | 0.0 | 0.00 | 0.00 | 0.00 | 85 | 996.7 |
| 20260506130112 | 44 | 227 | 0.0 | 0.0 | 0.00 | 0.00 | 0.00 | 85 | 996.8 |
| 20260506125551 | 44 | 186 | 0.0 | 7.0 | 0.00 | 0.00 | 0.00 | 84 | 996.7 |
| 20260506125052 | 45 | 186 | 0.0 | 7.0 | 0.00 | 0.00 | 0.00 | 85 | 996.7 |
| 20260506124558 | 45 | 192 | 0.0 | 0.0 | 0.00 | 0.00 | 0.00 | 84 | 996.6 |
| 20260506124051 | 45 | 209 | 0.0 | 0.0 | 0.00 | 0.00 | 0.00 | 85 | 996.4 |
| 20260506123550 | 45 | 153 | 0.0 | 2.0 | 0.00 | 0.00 | 0.00 | 85 | 996.5 |
| 20260506123050 | 44 | 221 | 0.0 | 2.0 | 0.00 | 0.00 | 0.00 | 85 | 996.6 |
| 20260506122552 | 44 | 205 | 0.0 | 3.0 | 0.00 | 0.00 | 0.00 | 85 | 996.5 |
| 20260506122048 | 44 | 245 | 0.0 | 6.0 | 0.00 | 0.00 | 0.00 | 85 | 996.6 |
| 20260506121548 | 44 | 213 | 1.0 | 6.0 | 0.00 | 0.00 | 0.00 | 85 | 996.6 |
| 20260506121047 | 44 | 194 | 0.0 | 3.0 | 0.00 | 0.00 | 0.00 | 85 | 996.6 |
| 20260506120550 | 45 | 224 | 0.0 | 3.0 | 0.00 | 0.00 | 0.00 | 86 | 996.5 |
| 20260506120047 | 45 | 188 | 0.0 | 1.0 | 0.00 | 0.00 | 0.00 | 86 | 996.7 |
| 20260506115545 | 45 | 197 | 0.0 | 0.0 | 0.00 | 0.00 | 0.00 | 86 | 996.8 |
| 20260506115045 | 45 | 227 | 0.0 | 2.0 | 0.00 | 0.00 | 0.00 | 85 | 996.6 |
| 20260506114544 | 45 | 210 | 0.0 | 3.0 | 0.00 | 0.00 | 0.00 | 85 | 996.6 |
| 20260506114043 | 45 | 187 | 0.0 | 3.0 | 0.00 | 0.00 | 0.00 | 84 | 996.6 |
| 20260506113542 | 45 | 233 | 0.0 | 1.0 | 0.00 | 0.00 | 0.00 | 85 | 996.5 |
| 20260506113050 | 45 | 192 | 0.0 | 0.0 | 0.00 | 0.00 | 0.00 | 85 | 996.4 |
| 20260506112642 | 45 | 160 | 0.0 | 0.0 | 0.00 | 0.00 | 0.00 | 85 | 996.3 |
| 20260506112042 | 45 | 159 | 0.0 | 0.0 | 0.00 | 0.00 | 0.00 | 85 | 996.2 |
| 20260506111541 | 45 | 188 | 0.0 | 0.0 | 0.00 | 0.00 | 0.00 | 86 | 996.3 |
| 20260506111038 | 45 | 178 | 0.0 | 1.0 | 0.00 | 0.00 | 0.00 | 86 | 996.3 |
| 20260506110538 | 45 | 159 | 0.0 | 1.0 | 0.00 | 0.00 | 0.00 | 87 | 996.2 |
| 20260506110045 | 45 | 159 | 0.0 | 0.0 | 0.00 | 0.00 | 0.00 | 87 | 996.3 |
| 20260506105537 | 45 | 159 | 0.0 | 0.0 | 0.00 | 0.00 | 0.00 | 87 | 996.1 |
| 20260506105037 | 45 | 159 | 0.0 | 0.0 | 0.00 | 0.00 | 0.00 | 87 | 996.1 |
| 20260506104541 | 45 | 162 | 0.0 | 0.0 | 0.00 | 0.00 | 0.00 | 87 | 996.2 |
| 20260506104035 | 45 | 162 | 0.0 | 0.0 | 0.00 | 0.00 | 0.00 | 87 | 996.3 |
| 20260506103534 | 45 | 192 | 0.0 | 0.0 | 0.00 | 0.00 | 0.00 | 87 | 996.3 |
| 20260506103044 | 45 | 261 | 0.0 | 0.0 | 0.00 | 0.00 | 0.00 | 87 | 996.3 |
| 20260506102534 | 45 | 261 | 0.0 | 0.0 | 0.00 | 0.00 | 0.00 | 87 | 996.4 |
| 20260506102034 | 45 | 261 | 0.0 | 0.0 | 0.00 | 0.00 | 0.00 | 87 | 996.4 |
| 20260506101548 | 45 | 261 | 0.0 | 0.0 | 0.00 | 0.00 | 0.00 | 87 | 996.5 |
| 20260506101033 | 45 | 230 | 0.0 | 0.0 | 0.00 | 0.00 | 0.00 | 87 | 996.4 |
| 20260506100534 | 45 | 249 | 0.0 | 0.0 | 0.00 | 0.00 | 0.00 | 87 | 996.5 |
| 20260506100048 | 45 | 249 | 0.0 | 0.0 | 0.00 | 0.00 | 0.00 | 87 | 996.6 |
| 20260506095532 | 45 | 248 | 0.0 | 0.0 | 0.00 | 0.00 | 0.00 | 87 | 996.4 |
| 20260506095033 | 45 | 279 | 0.0 | 0.0 | 0.00 | 0.00 | 0.00 | 87 | 996.3 |
| 20260506094532 | 45 | 181 | 0.0 | 0.0 | 0.00 | 0.00 | 0.00 | 87 | 996.1 |
| 20260506094031 | 45 | 211 | 0.0 | 0.0 | 0.00 | 0.00 | 0.00 | 87 | 996.1 |
| 20260506093530 | 45 | 189 | 0.0 | 0.0 | 0.00 | 0.00 | 0.00 | 87 | 996.0 |
| 20260506093039 | 45 | 196 | 0.0 | 0.0 | 0.00 | 0.00 | 0.00 | 86 | 995.9 |
| 20260506092530 | 45 | 169 | 0.0 | 0.0 | 0.00 | 0.00 | 0.00 | 86 | 996.0 |
| 20260506092029 | 46 | 194 | 0.0 | 1.0 | 0.00 | 0.00 | 0.00 | 86 | 996.0 |
| 20260506091534 | 46 | 194 | 0.0 | 1.0 | 0.00 | 0.00 | 0.00 | 86 | 996.0 |
| 20260506091032 | 46 | 198 | 0.0 | 0.0 | 0.00 | 0.00 | 0.00 | 86 | 996.1 |
| 20260506090528 | 46 | 198 | 0.0 | 0.0 | 0.00 | 0.00 | 0.00 | 86 | 996.2 |
| 20260506090028 | 46 | 197 | 0.0 | 1.0 | 0.00 | 0.00 | 0.00 | 86 | 996.3 |
| 20260506085531 | 46 | 197 | 0.0 | 1.0 | 0.00 | 0.00 | 0.00 | 86 | 996.3 |
| 20260506085027 | 46 | 226 | 0.0 | 0.0 | 0.00 | 0.00 | 0.00 | 85 | 996.3 |
| 20260506084528 | 46 | 226 | 0.0 | 0.0 | 0.00 | 0.00 | 0.00 | 85 | 996.5 |
| 20260506084027 | 46 | 226 | 0.0 | 0.0 | 0.00 | 0.00 | 0.00 | 85 | 996.4 |
| 20260506083527 | 46 | 226 | 0.0 | 0.0 | 0.00 | 0.00 | 0.00 | 85 | 996.5 |
| 20260506083025 | 46 | 226 | 0.0 | 0.0 | 0.00 | 0.00 | 0.00 | 85 | 996.5 |
| 20260506082528 | 46 | 210 | 0.0 | 0.0 | 0.00 | 0.00 | 0.00 | 85 | 996.4 |
| 20260506082028 | 46 | 211 | 0.0 | 0.0 | 0.00 | 0.00 | 0.00 | 84 | 996.2 |
| 20260506081531 | 46 | 211 | 0.0 | 0.0 | 0.00 | 0.00 | 0.00 | 84 | 996.1 |
| 20260506081023 | 47 | 211 | 0.0 | 0.0 | 0.00 | 0.00 | 0.00 | 84 | 995.9 |
| 20260506080523 | 47 | 241 | 0.0 | 0.0 | 0.00 | 0.00 | 0.00 | 84 | 995.9 |
| 20260506073520 | 47 | 252 | 0.0 | 0.0 | 0.00 | 0.00 | 0.00 | 81 | 996.1 |
| 20260506073034 | 47 | 254 | 0.0 | 0.0 | 0.00 | 0.00 | 0.00 | 81 | 996.0 |
| 20260506072519 | 47 | 254 | 0.0 | 0.0 | 0.00 | 0.00 | 0.00 | 80 | 996.1 |
| 20260506072019 | 47 | 225 | 0.0 | 5.0 | 0.00 | 0.00 | 0.00 | 80 | 996.3 |
| 20260506071519 | 47 | 250 | 0.0 | 0.0 | 0.00 | 0.00 | 0.00 | 79 | 996.2 |
| 20260506071018 | 48 | 236 | 0.0 | 0.0 | 0.00 | 0.00 | 0.00 | 78 | 996.3 |
| 20260506070516 | 48 | 244 | 0.0 | 0.0 | 0.00 | 0.00 | 0.00 | 76 | 996.0 |
| 20260506062510 | 48 | 232 | 0.0 | 0.0 | 0.00 | 0.00 | 0.00 | 63 | 995.9 |
| 20260506062010 | 48 | 247 | 0.0 | 0.0 | 0.00 | 0.00 | 0.00 | 62 | 996.0 |
| 20260506061509 | 49 | 249 | 0.0 | 0.0 | 0.00 | 0.00 | 0.00 | 62 | 996.0 |
| 20260506061009 | 49 | 249 | 0.0 | 0.0 | 0.00 | 0.00 | 0.00 | 61 | 996.0 |
| 20260506060509 | 49 | 257 | 0.0 | 4.0 | 0.00 | 0.00 | 0.00 | 61 | 996.0 |
| 20260506051002 | 49 | 254 | 0.0 | 3.0 | 0.00 | 0.00 | 0.00 | 59 | 995.9 |
| 20260506050501 | 49 | 360 | 0.0 | 3.0 | 0.00 | 0.00 | 0.00 | 59 | 996.0 |
| 20260506050104 | 50 | 360 | 0.0 | 2.0 | 0.00 | 0.00 | 0.00 | 58 | 995.8 |
| 20260506045100 | 50 | 360 | 0.0 | 1.0 | 0.00 | 0.00 | 0.00 | 58 | 995.7 |
| 20260506044705 | 50 | 360 | 0.0 | 1.0 | 0.00 | 0.00 | 0.00 | 58 | 995.8 |
| 20260506044103 | 50 | 360 | 0.0 | 8.0 | 0.00 | 0.00 | 0.00 | 58 | 995.8 |
| 20260506043557 | 50 | 360 | 0.0 | 8.0 | 0.00 | 0.00 | 0.00 | 57 | 995.8 |
| 20260506043108 | 50 | 360 | 0.0 | 4.0 | 0.00 | 0.00 | 0.00 | 57 | 995.8 |
| 20260506042557 | 50 | 228 | 0.0 | 4.0 | 0.00 | 0.00 | 0.00 | 57 | 995.6 |
| 20260506042056 | 50 | 257 | 0.0 | 0.0 | 0.00 | 0.00 | 0.00 | 56 | 995.7 |
| 20260506041603 | 50 | 261 | 0.0 | 0.0 | 0.00 | 0.00 | 0.00 | 56 | 995.6 |
| 20260506041055 | 50 | 257 | 0.0 | 0.0 | 0.00 | 0.00 | 0.00 | 56 | 995.7 |
| 20260506040557 | 50 | 246 | 0.0 | 0.0 | 0.00 | 0.00 | 0.00 | 56 | 995.6 |
| 20260506040055 | 50 | 252 | 0.0 | 1.0 | 0.00 | 0.00 | 0.00 | 56 | 995.6 |
| 20260506035553 | 50 | 246 | 0.0 | 1.0 | 0.00 | 0.00 | 0.00 | 56 | 995.5 |
| 20260506035053 | 51 | 245 | 0.0 | 0.0 | 0.00 | 0.00 | 0.00 | 56 | 995.5 |
| 20260506034624 | 51 | 264 | 0.0 | 0.0 | 0.00 | 0.00 | 0.00 | 56 | 995.5 |
| 20260506034052 | 51 | 244 | 0.0 | 0.0 | 0.00 | 0.00 | 0.00 | 57 | 995.4 |
| 20260506033551 | 51 | 244 | 0.0 | 0.0 | 0.00 | 0.00 | 0.00 | 56 | 995.5 |
| 20260506033057 | 51 | 236 | 0.0 | 0.0 | 0.00 | 0.00 | 0.00 | 56 | 995.5 |
| 20260506032551 | 51 | 259 | 0.0 | 0.0 | 0.00 | 0.00 | 0.00 | 55 | 995.6 |
| 20260506032049 | 51 | 261 | 0.0 | 0.0 | 0.00 | 0.00 | 0.00 | 55 | 995.3 |
| 20260506031549 | 51 | 254 | 0.0 | 0.0 | 0.00 | 0.00 | 0.00 | 55 | 995.2 |
| 20260506031051 | 51 | 260 | 0.0 | 1.0 | 0.00 | 0.00 | 0.00 | 54 | 995.2 |
| 20260506030548 | 51 | 259 | 0.0 | 1.0 | 0.00 | 0.00 | 0.00 | 55 | 995.1 |
| 20260506030047 | 51 | 259 | 0.0 | 0.0 | 0.00 | 0.00 | 0.00 | 55 | 995.0 |
| 20260506025547 | 51 | 248 | 0.0 | 0.0 | 0.00 | 0.00 | 0.00 | 55 | 994.9 |
| 20260506025050 | 51 | 269 | 0.0 | 0.0 | 0.00 | 0.00 | 0.00 | 55 | 994.9 |
| 20260506024546 | 51 | 241 | 0.0 | 0.0 | 0.00 | 0.00 | 0.00 | 55 | 994.8 |
| 20260506024046 | 52 | 257 | 0.0 | 0.0 | 0.00 | 0.00 | 0.00 | 55 | 994.8 |
| 20260506023546 | 52 | 262 | 0.0 | 0.0 | 0.00 | 0.00 | 0.00 | 54 | 994.9 |
| 20260506023103 | 52 | 257 | 0.0 | 0.0 | 0.00 | 0.00 | 0.00 | 54 | 994.8 |
| 20260506022543 | 52 | 253 | 0.0 | 0.0 | 0.00 | 0.00 | 0.00 | 53 | 994.8 |
| 20260506022043 | 52 | 263 | 0.0 | 0.0 | 0.00 | 0.00 | 0.00 | 52 | 994.7 |
| 20260506021544 | 52 | 252 | 0.0 | 6.0 | 0.00 | 0.00 | 0.00 | 52 | 994.8 |
| 20260506021043 | 52 | 272 | 0.0 | 6.0 | 0.00 | 0.00 | 0.00 | 52 | 994.8 |
| 20260506020542 | 52 | 257 | 0.0 | 0.0 | 0.00 | 0.00 | 0.00 | 52 | 994.8 |
| 20260506020045 | 53 | 247 | 0.0 | 3.0 | 0.00 | 0.00 | 0.00 | 53 | 994.7 |
| 20260506015541 | 53 | 254 | 0.0 | 3.0 | 0.00 | 0.00 | 0.00 | 52 | 994.7 |
| 20260506015044 | 53 | 252 | 0.0 | 1.0 | 0.00 | 0.00 | 0.00 | 52 | 994.8 |
| 20260506014540 | 53 | 248 | 0.0 | 1.0 | 0.00 | 0.00 | 0.00 | 52 | 994.7 |
| 20260506014043 | 53 | 242 | 0.0 | 10.0 | 0.00 | 0.00 | 0.00 | 53 | 994.5 |
| 20260506013538 | 53 | 229 | 0.0 | 10.0 | 0.00 | 0.00 | 0.00 | 53 | 994.5 |
| 20260506013040 | 53 | 249 | 0.0 | 12.0 | 0.00 | 0.00 | 0.00 | 53 | 994.5 |
| 20260506012537 | 53 | 231 | 0.0 | 12.0 | 0.00 | 0.00 | 0.00 | 52 | 994.6 |
| 20260506012037 | 53 | 260 | 0.0 | 14.0 | 0.00 | 0.00 | 0.00 | 52 | 994.5 |
| 20260506011536 | 54 | 265 | 1.0 | 14.0 | 0.00 | 0.00 | 0.00 | 51 | 994.4 |
| 20260506011034 | 54 | 239 | 1.0 | 12.0 | 0.00 | 0.00 | 0.00 | 51 | 994.1 |